ZF1RC George Town KY current weather conditions

sailwx.info

Wind from 073 at 2 knots gusting 5

Air temperature 26.7° C
Dewpoint 22.9° C

Last reported at 2014-Jul-13 08:50 UTC.
Time now 2014-Jul-13 09:25 UTC

Location: N 19°16' W 081°23'.
View on Google Maps.

See reports from other nearby stations

  
Tides Stations Pressure Air Temp Water Temp Dewpoint Dewpoint depression Visibility Wind Speed Wind Dir Waves Ship positions
date/time (UTC)wind fromknots sea level pressurealtimeterstation pressurevisibilityair tempwater tempwave heightnotes
2014-Jul-13 08:50 073 2 gusting 5 26.7
2014-Jul-13 08:40 013 1 gusting 4 26.7
2014-Jul-13 08:30 080 4 gusting 4 26.7
2014-Jul-13 08:20 095 2 gusting 4 26.7
2014-Jul-13 08:10 065 2 gusting 4 26.7
2014-Jul-13 08:00 069 2 gusting 2 26.7
2014-Jul-13 07:50 085 3 gusting 5 26.7
2014-Jul-13 07:40 089 5 gusting 5 26.7
2014-Jul-13 07:20 087 2 gusting 6 26.7
2014-Jul-13 07:10 084 4 gusting 6 26.7
2014-Jul-13 06:50 106 1 gusting 2 27.2
2014-Jul-13 06:40 078 2 gusting 4 27.2
2014-Jul-13 06:30 084 2 gusting 4 27.2
2014-Jul-13 06:20 026 1 gusting 4 27.2
2014-Jul-13 06:10 108 3 gusting 4 27.2
2014-Jul-13 06:00 050 2 gusting 5 27.2
2014-Jul-13 05:50 064 1 gusting 2 27.2
2014-Jul-13 05:30 078 1 gusting 1 27.2
2014-Jul-13 05:20 070 0 gusting 1 27.2
2014-Jul-13 05:10 076 1 gusting 2 27.2
2014-Jul-13 05:00 041 0 gusting 1 27.2
2014-Jul-13 04:50 048 1 gusting 1 27.2
2014-Jul-13 04:30 124 27.8
2014-Jul-13 04:10 105 4 gusting 5 27.8
2014-Jul-13 04:00 073 4 gusting 4 27.8
2014-Jul-13 03:40 081 3 gusting 4 27.8
2014-Jul-13 03:30 090 3 gusting 5 27.2
2014-Jul-13 03:20 046 2 gusting 4 27.8
2014-Jul-13 03:10 097 1 gusting 6 27.8
2014-Jul-13 03:00 097 2 gusting 6 27.8
2014-Jul-13 02:50 071 2 gusting 4 27.8
2014-Jul-13 02:30 058 2 gusting 6 28.3
2014-Jul-13 02:20 032 4 gusting 6 28.3
2014-Jul-13 02:10 061 2 gusting 10 28.3
2014-Jul-13 02:00 064 3 gusting 6 28.3
2014-Jul-13 01:50 084 3 gusting 7 28.3
2014-Jul-13 01:40 071 2 gusting 5 28.3
2014-Jul-13 01:20 032 3 gusting 6 27.8
2014-Jul-13 01:10 078 5 gusting 5 27.8
2014-Jul-13 01:00 085 1 gusting 1 27.2
2014-Jul-13 00:50 076 1 gusting 2 27.2
2014-Jul-13 00:40 015 2 gusting 4 26.7
2014-Jul-13 00:30 077 3 gusting 4 26.7
2014-Jul-13 00:20 042 2 gusting 6 26.7
2014-Jul-13 00:00 094 4 gusting 6 28.3
2014-Jul-12 23:50 136 2 gusting 6 28.9
2014-Jul-12 23:40 164 2 gusting 4 29.4
2014-Jul-12 23:30 111 6 gusting 7 29.4
2014-Jul-12 23:20 111 5 gusting 8 29.4
2014-Jul-12 23:10 068 6 gusting 8 30.0
2014-Jul-12 22:54 089 5 gusting 5 30.6
2014-Jul-12 22:50 024 0 gusting 6 30.0
2014-Jul-12 22:40 114 2 gusting 5 30.0
2014-Jul-12 22:30 074 2 gusting 6 30.0
2014-Jul-12 22:20 107 2 gusting 5 30.0
2014-Jul-12 22:10 084 2 gusting 5 30.0
2014-Jul-12 22:00 125 1 gusting 6 30.6
2014-Jul-12 21:50 091 1 gusting 7 30.0
2014-Jul-12 21:40 094 0 gusting 6 29.4
2014-Jul-12 21:30 100 5 gusting 7 29.4
2014-Jul-12 21:20 075 1 gusting 5 30.0
2014-Jul-12 21:00 106 0 gusting 4 30.0
2014-Jul-12 20:50 161 2 gusting 5 30.6
2014-Jul-12 20:40 209 2 gusting 4 30.6
2014-Jul-12 20:30 181 0 gusting 0 31.1
2014-Jul-12 20:20 061 0 gusting 0 31.1
2014-Jul-12 20:10 140 0 gusting 1 31.7
2014-Jul-12 20:00 154 0 gusting 1 31.7
2014-Jul-12 19:50 234 0 gusting 0 31.7
2014-Jul-12 19:40 116 0 gusting 5 32.2
2014-Jul-12 19:30 161 1 gusting 4 32.2
2014-Jul-12 19:20 078 0 gusting 1 31.7
2014-Jul-12 19:10 218 1 gusting 4 31.7
2014-Jul-12 19:00 111 4 gusting 6 31.7
2014-Jul-12 18:50 171 3 gusting 6 31.7
2014-Jul-12 18:40 134 0 gusting 1 31.7
2014-Jul-12 18:30 126 0 gusting 1 31.7
2014-Jul-12 18:10 175 1 gusting 2 30.6
2014-Jul-12 18:00 031 0 gusting 1 30.6
2014-Jul-12 17:50 160 0 gusting 2 30.6
2014-Jul-12 17:40 069 30.6
2014-Jul-12 17:30 142 0 gusting 2 31.1
2014-Jul-12 17:20 084 2 gusting 4 31.7
2014-Jul-12 17:00 073 1 gusting 6 31.7
2014-Jul-12 16:50 124 2 gusting 5 31.7
2014-Jul-12 16:40 228 0 gusting 6 31.7
2014-Jul-12 16:30 188 1 gusting 1 31.1
2014-Jul-12 16:20 174 0 gusting 2 31.1
2014-Jul-12 16:00 152 4 gusting 6 30.0
2014-Jul-12 15:50 225 31.1
2014-Jul-12 15:40 095 2 gusting 7 31.1
2014-Jul-12 15:30 272 1 gusting 4 31.1
2014-Jul-12 15:20 021 0 gusting 5 31.1
2014-Jul-12 15:10 087 1 gusting 8 31.1
2014-Jul-12 15:00 128 0 gusting 5 31.1
2014-Jul-12 14:40 045 0 gusting 5 31.1
2014-Jul-12 14:20 107 4 gusting 6 30.6
2014-Jul-12 14:10 074 1 gusting 4 30.6
2014-Jul-12 13:50 345 1 gusting 6 30.6
2014-Jul-12 13:40 122 6 gusting 8 30.0
2014-Jul-12 13:30 112 6 gusting 8 30.0
2014-Jul-12 13:20 098 7 gusting 8 30.0
2014-Jul-12 13:10 101 2 gusting 8 30.0
2014-Jul-12 13:00 098 4 gusting 5 29.4
2014-Jul-12 12:50 142 1 gusting 11 29.4
2014-Jul-12 12:40 133 6 gusting 7 28.9
2014-Jul-12 12:30 101 5 gusting 6 28.9
2014-Jul-12 12:20 077 4 gusting 5 28.3
2014-Jul-12 12:10 087 3 gusting 5 28.3
2014-Jul-12 12:00 079 1 gusting 6 27.8
2014-Jul-12 11:50 131 2 gusting 5 27.2
2014-Jul-12 11:40 075 4 gusting 6 27.2
2014-Jul-12 11:20 106 3 gusting 4 26.7
2014-Jul-12 11:10 125 1 gusting 2 26.1
2014-Jul-12 10:50 124 0 gusting 4 26.1
2014-Jul-12 10:30 071 2 gusting 5 26.7
2014-Jul-12 10:20 078 1 gusting 4 26.1
2014-Jul-12 10:10 095 3 gusting 5 26.7
2014-Jul-12 10:00 094 2 gusting 5 26.1
2014-Jul-12 09:40 081 3 gusting 6 26.7
2014-Jul-12 09:30 073 3 gusting 4 26.7
2014-Jul-12 09:20 094 3 gusting 4 26.7
2014-Jul-12 09:00 097 0 gusting 2 26.7
2014-Jul-12 08:50 098 1 gusting 2 26.7
2014-Jul-12 08:40 085 2 gusting 5 26.1
2014-Jul-12 08:30 068 2 gusting 2 26.1
2014-Jul-12 08:20 075 1 gusting 4 26.1
2014-Jul-12 08:10 100 1 gusting 4 26.1
2014-Jul-12 08:00 113 2 gusting 2 26.1
2014-Jul-12 07:50 108 2 gusting 4 26.1
2014-Jul-12 07:40 087 2 gusting 4 26.1
2014-Jul-12 07:30 090 2 gusting 5 26.1
2014-Jul-12 07:10 080 1 gusting 4 26.1
2014-Jul-12 07:00 114 1 gusting 2 26.1
2014-Jul-12 06:30 082 2 gusting 2 26.1
2014-Jul-12 06:10 072 1 gusting 2 26.1
2014-Jul-12 06:00 099 1 gusting 4 26.7
2014-Jul-12 05:50 081 2 gusting 4 26.7
2014-Jul-12 05:40 081 2 gusting 4 26.7
2014-Jul-12 05:30 122 2 gusting 5 26.7
2014-Jul-12 05:20 098 2 gusting 4 26.7
2014-Jul-12 05:10 110 2 gusting 4 26.1
2014-Jul-12 05:00 064 2 gusting 4 26.7
2014-Jul-12 04:50 097 1 gusting 4 26.7
2014-Jul-12 04:40 129 0 gusting 2 26.1
2014-Jul-12 04:30 094 1 gusting 2 26.1
2014-Jul-12 04:20 083 2 gusting 4 26.1
2014-Jul-12 04:10 074 2 gusting 4 26.1
2014-Jul-12 04:00 099 2 gusting 4 26.1
2014-Jul-12 03:50 091 1 gusting 4 26.1
2014-Jul-12 03:40 091 1 gusting 2 26.1
2014-Jul-12 03:30 087 2 gusting 2 26.1
2014-Jul-12 03:20 077 1 gusting 1 26.7
2014-Jul-12 03:10 076 0 gusting 1 26.7
2014-Jul-12 03:00 096 0 gusting 2 26.7
2014-Jul-12 02:50 098 0 gusting 1 26.7
2014-Jul-12 02:40 097 1 gusting 1 26.7
2014-Jul-12 02:20 098 0 gusting 1 27.2
2014-Jul-12 02:10 107 0 gusting 2 27.2
2014-Jul-12 02:00 085 0 gusting 1 27.2
2014-Jul-12 01:50 067 1 gusting 2 27.2
2014-Jul-12 01:40 088 0 gusting 1 27.2
2014-Jul-12 01:30 069 0 gusting 2 27.2
2014-Jul-12 01:20 069 0 gusting 4 27.2
2014-Jul-12 01:00 043 2 gusting 4 27.8
2014-Jul-12 00:50 055 2 gusting 4 27.8
2014-Jul-12 00:40 105 2 gusting 4 27.8
2014-Jul-12 00:30 089 4 gusting 4 27.8
2014-Jul-12 00:10 029 4 gusting 6 28.3
2014-Jul-12 00:00 082 4 gusting 6 28.3
2014-Jul-11 23:50 069 2 gusting 5 28.9
2014-Jul-11 23:30 078 1 gusting 5 29.4
2014-Jul-11 23:20 036 4 gusting 6 30.0
2014-Jul-11 23:10 084 2 gusting 5 30.0
2014-Jul-11 23:00 102 2 gusting 5 30.0
2014-Jul-11 22:54 077 1 gusting 1 30.0
2014-Jul-11 22:50 065 2 gusting 2 29.4
2014-Jul-11 22:40 081 0 gusting 6 29.4
2014-Jul-11 22:20 100 0 gusting 0 29.4
2014-Jul-11 22:10 003 0 gusting 0 28.3
2014-Jul-11 22:00 066 0 gusting 0 28.3
2014-Jul-11 21:50 060 1 gusting 4 27.8
2014-Jul-11 21:40 034 2 gusting 5 27.8
2014-Jul-11 21:20 089 28.9
2014-Jul-11 21:10 053 0 gusting 4 28.9
2014-Jul-11 21:00 210 28.9
2014-Jul-11 20:50 129 0 gusting 0 29.4
2014-Jul-11 20:30 113 30.0
2014-Jul-11 20:20 100 0 gusting 1 30.0
2014-Jul-11 20:10 342 30.0
2014-Jul-11 20:00 068 0 gusting 2 30.6
2014-Jul-11 19:50 275 30.6
2014-Jul-11 19:40 111 1 gusting 1 30.0
2014-Jul-11 19:30 130 0 gusting 2 28.9
2014-Jul-11 19:20 312 27.8
2014-Jul-11 19:10 341 0 gusting 4 26.7
2014-Jul-11 19:00 063 1 gusting 4 26.7
2014-Jul-11 18:50 048 2 gusting 5 27.2
2014-Jul-11 18:40 089 5 gusting 8 28.3
2014-Jul-11 18:30 084 5 gusting 6 29.4
2014-Jul-11 18:20 114 2 gusting 5 30.0
2014-Jul-11 18:10 164 1 gusting 1 31.1
2014-Jul-11 18:00 151 0 gusting 1 31.1
2014-Jul-11 17:50 076 2 gusting 4 31.7
2014-Jul-11 17:40 303 31.1
2014-Jul-11 17:30 346 0 gusting 4 30.6
2014-Jul-11 17:20 190 3 gusting 5 31.1
2014-Jul-11 17:10 161 0 gusting 4 31.1
2014-Jul-11 16:50 094 1 gusting 2 31.1
2014-Jul-11 16:40 063 30.6
2014-Jul-11 16:30 047 4 gusting 6 30.6
2014-Jul-11 16:20 154 0 gusting 2 31.1
2014-Jul-11 16:10 079 0 gusting 1 31.1
2014-Jul-11 16:00 320 0 gusting 2 31.1
2014-Jul-11 15:50 303 1 gusting 4 31.1
2014-Jul-11 15:40 072 5 gusting 7 31.7
2014-Jul-11 15:30 145 1 gusting 5 31.7
2014-Jul-11 15:20 127 0 gusting 10 31.1
2014-Jul-11 15:10 064 6 gusting 7 30.6
2014-Jul-11 15:00 083 0 gusting 10 30.6
2014-Jul-11 14:50 106 2 gusting 2 31.1
2014-Jul-11 14:40 123 1 gusting 2 30.6
2014-Jul-11 14:30 027 30.6
2014-Jul-11 14:20 104 1 gusting 6 30.6
2014-Jul-11 14:00 084 1 gusting 7 30.0
2014-Jul-11 13:50 116 6 gusting 10 30.6
2014-Jul-11 13:40 053 5 gusting 8 30.6
2014-Jul-11 13:20 094 2 gusting 6 30.0
2014-Jul-11 13:10 115 2 gusting 4 30.0
2014-Jul-11 13:00 099 4 gusting 7 29.4
2014-Jul-11 12:50 061 4 gusting 6 29.4
2014-Jul-11 12:40 090 5 gusting 6 28.9
2014-Jul-11 12:30 139 0 gusting 6 28.3
2014-Jul-11 12:00 106 2 gusting 4 26.7
2014-Jul-11 11:50 094 2 gusting 4 26.7
2014-Jul-11 11:30 069 2 gusting 2 26.1
2014-Jul-11 11:20 089 0 gusting 2 26.1
2014-Jul-11 11:10 087 1 gusting 4 26.1
2014-Jul-11 11:00 088 1 gusting 1 26.1
2014-Jul-11 10:40 152 0 gusting 2 26.1
2014-Jul-11 10:30 096 1 gusting 4 26.1
2014-Jul-11 10:20 101 0 gusting 2 26.1
2014-Jul-11 10:10 073 0 gusting 1 26.1
2014-Jul-11 10:00 072 1 gusting 2 26.1
2014-Jul-11 09:50 075 1 gusting 2 26.1
2014-Jul-11 09:40 104 1 gusting 1 26.1
2014-Jul-11 09:20 087 1 gusting 2 26.1
2014-Jul-11 09:10 092 1 gusting 2 26.1
2014-Jul-11 09:00 095 1 gusting 1 26.1